Flag for Hungary Weather past 2 weeks in Szeged, Hungary

Now
46 °F

Overcast.


Feels Like: 45 °F
Forecast: 44 / 60 °F
Wind: 3 mph from North

Location: Szeged


UV Index: 0 (Low)

Visibility: 9 mi


Pressure: 29.80 "Hg

Humidity: 87%

Dew point: 42 °F

Location of SzegedLocation

Historic Weather in Szeged

°F

Szeged temperature yesterday

Maximum temperature yesterday: 57 °F (at 4:00 PM)
Minimum temperature yesterday: 43 °F (at 8:00 AM)
Average temperature yesterday: 49 °F

Past Weeks' High & Low Weather Summary

 TemperatureHumidityPressure
High72 °F (Apr 4, 5:00 PM)97% (Apr 8, 8:00 AM)30.11 "Hg (Apr 8, 8:00 AM)
Low35 °F (Apr 10, 6:00 AM)29% (Apr 3, 4:00 PM)29.75 "Hg (Apr 4, 7:00 PM)
Average53 °F66%29.97 "Hg
* Reported Apr 3 7:00 AM — Apr 18 7:00 AM, Szeged, Weather by CustomWeather, © 2014

Note: Actual official high and low records may vary slightly from our data, if they occured in-between our weather recording intervals... More about our weather records

Advertising

Historic Weather Conditions — Data for Previous 24 hours

 ConditionsComfort  
Time TempWeatherWind HumidityBarometerVisibility
7:00 AM
Apr 18
45 °FOvercast.2 mph90%29.81 "Hg6 mi
6:00 AM44 °FOvercast.3 mph90%29.81 "Hg6 mi
5:00 AM44 °FPassing clouds.3 mph90%29.82 "Hg6 mi
4:00 AM45 °FOvercast.2 mph89%29.84 "Hg6 mi
3:00 AM44 °FPassing clouds.2 mph89%29.85 "Hg7 mi
2:00 AM44 °FPassing clouds.3 mph86%29.86 "Hg7 mi
6:00 PM
Apr 17
56 °FOvercast.3 mph73%29.93 "Hg25 mi
5:00 PM56 °FOvercast.1 mph73%29.94 "Hg25 mi
4:00 PM57 °FOvercast.2 mph65%29.93 "Hg25 mi
3:00 PM56 °FOvercast.2 mph67%29.94 "Hg25 mi
2:00 PM55 °FOvercast.5 mph67%29.96 "Hg25 mi
1:00 PM55 °FOvercast.7 mph69%29.96 "Hg22 mi
12:00 PM51 °FOvercast.8 mph76%29.98 "Hg22 mi
11:00 AM48 °FOvercast.10 mph78%29.98 "Hg22 mi
10:00 AM46 °FOvercast.10 mph80%29.98 "Hg19 mi
9:00 AM44 °FOvercast.9 mph86%29.98 "Hg16 mi
8:00 AM43 °FLight rain. Overcast.9 mph87%29.97 "Hg12 mi
Weather by CustomWeather, © 2014

See weather overview